Showing default

VIREON-1, 68434

Orbit data source: Space-Track

VIREON-1, 68434 is a payload satellite owned by AAC ClydeSpace (UK) in SSO that was launched on Mon, 30 Mar 2026 UTC via an FALCON 9 launch vehicle from the Air Force Western Test Range (AFWTR). Payload-class satellites include a variety of spacecraft equipped with specific instruments for various scientific and technological missions. These include communications satellites like Starlink; space stations such as the ISS; scientific satellites like the Hubble; Earth observation satellites from companies like Planet Labs, Umbra, and HawkEye 360; GPS; miniature CubeSats for education and research; and military/defense satellites.

Loading next visibility...
Identifier
68434, 2026-067U
Orbit
SSO
Country
Flag of UKUK
Related business
Manufacturer
AAC ClydeSpace
Mission
Operational spacecraft
Bus & Motor
CUBESAT 16U EPIC, Unknown motor
Mass
~20 kg wet, ~20 kg dry
Launch date (UTC)
2026-03-30 (3 months ago)
Launch vehicle
FALCON 9
Launch site
Air Force Western Test Range (AFWTR)
Object type
Payload
Rocket body
Debris
Shape & HBR
Unknown shape, 0.3 m
Radar Cross Section
Medium (>0.1 m² and <1 m²)

Expand to show TLE details & history
Last TLE update: 2 days ago

TLE from 2 days ago
0 VIREON-1
1 68434U 26067U   26171.35278954  .00003184  00000-0  15692-3 0  9998
2 68434  97.4584 129.8517 0001521  37.7281 322.4060 15.18660929 12427
Epoch: 2026-06-20T08:28Z
TLE epoch observation values (Epoch: 2026-06-20T08:28:01.016Z)
Latitude
0.00002°
Longitude
94.27883°
Altitude
512.143 km
Speed
7.608 km/s
True Right ascension
08h 39m 24s
True Declination
0° 00' 00"
Sunlit
Object was in daylight at epoch
Visualization orbit readout
Latitude
Unknown
Longitude
Unknown
Altitude
Unknown
Speed
Unknown
Apparent Right ascension
Unknown
Apparent Declination
Unknown
Sunlit
N/A
Visualization observer readout
Local Sidereal Time
15:14:11
Azimuth
Unknown
Elevation
Unknown
Doppler factor
Unknown
Orbital elements
Apogee altitude
507.904 km
Perigee altitude
505.809 km
Semi-major axis
6,884.993 km
Eccentricity
0.00015
Inclination
97.4584°
RAAN
129.8517°
Arg. of periapsis
37.7281°
True anomaly
322.39537°
Mean anomaly
322.406°
Eccentric anomaly
322.40068°
Mean motion
3.79916 °/min
Orbital period
94.76 mins
BSTAR
0.00015692
Loading maneuver chart data...
Computing Atmospheric mass density...
Loading historical data...
Loading historical data...
Loading historical data...
Loading historical data...
Loading historical data...
Loading historical data...
Loading historical data...

Documentation

Showing up to 5 results
|